Bowling Green, KY

6:07 PM CDT on October 17, 2017 (GMT -0500)
Bowling Green-Warren County Regional

Weather History for KBWG - August, 2014

Change the Weather History Date:

Saturday, August 9, 2014

  Actual Average Record
Temperature  
Mean Temperature 80 °F 78 °F  
Max Temperature 87 °F 90 °F 110 °F (1930)
Min Temperature 72 °F 67 °F 52 °F (1989)
Degree Days  
Heating Degree Days 0 0  
Month to date heating degree days 0 0  
Since 1 June heating degree days 0 5  
Since 1 July heating degree days 0 0  
Cooling Degree Days 15 13  
Month to date cooling degree days 115 118  
Year to date cooling degree days 978 999  
Since 1 June cooling degree days 781 846  
Growing Degree Days 30 (Base 50)    
Moisture  
Dew Point 71 °F    
Average Humidity 78    
Maximum Humidity 94    
Minimum Humidity 61    
Precipitation  
Precipitation 1.91 in 0.10 in 2.85 in (2013)
Month to date precipitation 3.06 0.88  
Year to date precipitation 27.89 31.11  
Snow  
Snow 0.00 in 0.00 in 0.00 in ()
Month to date snowfall 0.0 0.0  
Since 1 June snowfall 0.0 0.0  
Since 1 July snowfall 0.0 0.0  
Snow Depth 0.00 in    
Sea Level Pressure  
Sea Level Pressure 29.96 in    
Wind  
Wind Speed 5 mph (South)    
Max Wind Speed 14 mph    
Max Gust Speed 17 mph    
Visibility 7 miles    
Events Fog , Rain , Thunderstorm    
T = Trace of Precipitation, MM = Missing Value Source: NWS Daily Summary

Daily Weather History Graph

Daily Weather History Graph

Search for Another Location

Airport or City:

Trip Planner

Search our weather history database for the weather conditions in past years. The results will help you decide how hot, cold, wet, or windy it might be!

Date:

Astronomy

Aug. 09, 2014 Rise Set
Actual Time 5:57 AM CDT 7:44 PM CDT
Civil Twilight 5:29 AM CDT 8:12 PM CDT
Nautical Twilight 4:55 AM CDT 8:46 PM CDT
Astronomical Twilight 4:19 AM CDT 9:22 PM CDT
Moon 6:45 PM CDT (8/9) 4:37 AM CDT (8/9)
Length of Visible Light 14h 42m
Length of Day
13h 46m
Waxing Gibbous, 98% of the Moon is Illuminated
Aug 9
Waxing Gibbous
Aug 10
Full
Aug 17
Last Quarter
Aug 25
New
Sep 2
First Quarter

Hourly Weather History & Observations

Time (CDT) Temp. Heat Index Dew Point Humidity Pressure Visibility Wind Dir Wind Speed Gust Speed Precip Events Conditions
12:53 AM 75.9 °F - 69.1 °F 79% 29.94 in 10.0 mi South 8.1 mph - N/A   Mostly Cloudy
1:01 AM 75.9 °F - 69.1 °F 79% 29.96 in 10.0 mi South 6.9 mph - N/A   Mostly Cloudy
1:10 AM 75.0 °F - 69.1 °F 82% 29.96 in 10.0 mi South 4.6 mph - N/A   Scattered Clouds
1:53 AM 75.0 °F - 69.1 °F 82% 29.95 in 10.0 mi SSW 6.9 mph - N/A   Partly Cloudy
2:53 AM 73.9 °F - 69.1 °F 85% 29.94 in 10.0 mi SSW 5.8 mph - N/A   Scattered Clouds
3:53 AM 73.9 °F - 69.1 °F 85% 29.94 in 10.0 mi SE 4.6 mph - N/A   Partly Cloudy
4:53 AM 73.0 °F - 68.0 °F 84% 29.95 in 10.0 mi South 4.6 mph - N/A   Clear
5:53 AM 73.0 °F - 68.0 °F 84% 29.96 in 10.0 mi SSE 6.9 mph - N/A   Overcast
6:53 AM 73.0 °F - 68.0 °F 84% 29.98 in 10.0 mi South 8.1 mph - N/A   Overcast
7:53 AM 73.9 °F - 69.1 °F 85% 29.99 in 10.0 mi SSW 3.5 mph - N/A   Overcast
8:21 AM 75.0 °F - 69.1 °F 82% 30.00 in 10.0 mi SSW 6.9 mph - N/A   Overcast
8:45 AM 75.0 °F - 70.0 °F 84% 30.00 in 10.0 mi South 5.8 mph - 0.00 in Rain Light Rain
8:53 AM 75.9 °F - 70.0 °F 82% 29.99 in 10.0 mi SSE 5.8 mph - 0.00 in   Mostly Cloudy
9:06 AM 77.0 °F - 70.0 °F 79% 30.00 in 10.0 mi SW 3.5 mph - N/A   Mostly Cloudy
9:37 AM 79.0 °F - 71.1 °F 77% 30.00 in 10.0 mi SSW 4.6 mph - N/A   Mostly Cloudy
9:53 AM 80.1 °F 83.6 °F 71.1 °F 74% 29.99 in 10.0 mi Variable 5.8 mph - N/A   Mostly Cloudy
10:53 AM 84.0 °F 89.0 °F 71.1 °F 65% 29.98 in 10.0 mi SW 6.9 mph - N/A   Mostly Cloudy
11:41 AM 84.9 °F 90.1 °F 71.1 °F 63% 29.99 in 10.0 mi SW 9.2 mph - N/A   Mostly Cloudy
11:53 AM 86.0 °F 91.5 °F 71.1 °F 61% 29.97 in 10.0 mi WSW 4.6 mph - N/A   Mostly Cloudy
12:37 PM 80.1 °F 84.2 °F 73.0 °F 79% 29.98 in 1.8 mi WNW 11.5 mph - 0.00 in Rain Heavy Rain
12:43 PM 77.0 °F - 72.0 °F 84% 29.97 in 0.8 mi West 3.5 mph - 0.00 in Rain Heavy Rain
12:50 PM 78.8 °F - 71.6 °F 78% 29.97 in 1.5 mi ENE 4.6 mph - N/A Rain Light Rain
12:53 PM 79.0 °F - 73.0 °F 82% 29.96 in 3.0 mi NE 3.5 mph - N/A Rain Light Rain
1:34 PM 80.1 °F 84.5 °F 73.9 °F 81% 29.95 in 10.0 mi East 4.6 mph - N/A Thunderstorm Thunderstorm
1:53 PM 78.1 °F - 73.9 °F 87% 29.95 in 10.0 mi Variable 6.9 mph - N/A Rain , Thunderstorm Light Thunderstorms and Rain
2:08 PM 75.0 °F - 72.0 °F 90% 29.97 in 1.8 mi Variable 4.6 mph - 0.00 in Rain , Thunderstorm Heavy Thunderstorms and Rain
2:14 PM 75.0 °F - 71.1 °F 87% 29.98 in 0.8 mi WNW 13.8 mph - 0.00 in Rain , Thunderstorm Heavy Thunderstorms and Rain
2:19 PM 73.9 °F - 71.1 °F 91% 29.98 in 0.2 mi WNW 6.9 mph - N/A Fog , Rain , Thunderstorm Heavy Thunderstorms and Rain
2:39 PM 73.9 °F - 72.0 °F 93% 29.96 in 0.5 mi North 4.6 mph - N/A Fog , Rain , Thunderstorm Heavy Thunderstorms and Rain
2:47 PM 73.4 °F - 71.6 °F 94% 29.97 in 1.0 mi Variable 4.6 mph - N/A Rain , Thunderstorm Heavy Thunderstorms and Rain
2:53 PM 73.9 °F - 72.0 °F 93% 29.96 in 0.8 mi Variable 3.5 mph - N/A Rain , Thunderstorm Heavy Thunderstorms and Rain
3:01 PM 75.0 °F - 73.0 °F 94% 29.97 in 0.8 mi WSW 8.1 mph - 0.00 in Rain , Thunderstorm Heavy Thunderstorms and Rain
3:06 PM 75.0 °F - 73.0 °F 94% 29.97 in 1.5 mi WSW 6.9 mph - N/A Rain , Thunderstorm Heavy Thunderstorms and Rain
3:10 PM 75.0 °F - 72.0 °F 90% 29.97 in 3.0 mi WSW 4.6 mph - N/A Rain , Thunderstorm Light Thunderstorms and Rain
3:26 PM 75.0 °F - 72.0 °F 90% 29.96 in 2.0 mi Calm Calm - N/A Rain , Thunderstorm Rain
3:33 PM 75.0 °F - 72.0 °F 90% 29.94 in 5.0 mi Calm Calm - N/A Rain Light Rain
3:53 PM 77.0 °F - 73.0 °F 88% 29.93 in 10.0 mi NE 4.6 mph - N/A   Overcast
4:04 PM 77.0 °F - 73.0 °F 88% 29.95 in 10.0 mi East 5.8 mph - N/A   Mostly Cloudy
4:53 PM 81.0 °F 85.2 °F 72.0 °F 74% 29.91 in 10.0 mi North 3.5 mph - N/A   Clear
5:53 PM 82.0 °F 87.4 °F 73.0 °F 74% 29.92 in 10.0 mi NE 6.9 mph - N/A   Clear
6:53 PM 80.1 °F 84.2 °F 73.0 °F 79% 29.94 in 10.0 mi East 5.8 mph - N/A   Scattered Clouds
7:53 PM 78.1 °F - 73.0 °F 84% 29.94 in 10.0 mi NE 3.5 mph - N/A   Clear
8:19 PM 77.0 °F - 73.0 °F 88% 29.97 in 10.0 mi East 4.6 mph - N/A   Mostly Cloudy
8:53 PM 75.9 °F - 73.0 °F 91% 29.95 in 10.0 mi East 5.8 mph - N/A   Scattered Clouds
10:00 PM 75.0 °F - 72.0 °F 90% 29.98 in 10.0 mi SE 3.5 mph - N/A   Scattered Clouds
11:53 PM 73.0 °F - 71.1 °F 93% 29.94 in 10.0 mi Calm Calm - N/A   Clear